Weather in Selezni

Russia / Smolensk Oblast     55°38′49″N   31°28′28″E
temp.,
°C
wind,
m/s
gust,
m/s
humid.,
%
clouds,
%
prec.,
mm/h
press.,
hPa
HPBL,
m
18 april, sun
sun1800:00+8ne4138156 0.0 1020565
03:00+7ne41279100 0.0 1020471
06:00+5ne4137721 0.0 1021509
09:00+8ene511644 0.0 1021707
12:00+12ene58495 0.0 10211339
15:00+14ene57415 0.0 10211808
18:00+13ene485081 0.0 10211753
21:00+8se2677100 0.0 1023325
19 april, mon
mon1900:00+6ene4118333 0.0 1024766
03:00+7ne3984100 0.0 1024727
06:00+7ene498395 0.1 1024908
09:00+6ne3882100 0.1 1025486
12:00+9ene4670100 0.0 10241016
15:00+9ene5769100 0.1 10241197
18:00+8ene3773100 0.0 10241044
21:00+7ene3877100 0.1 1024713
20 april, tue
tue2000:00+5e2690100 0.2 1023956
03:00+3ene3885100 0.3 1022619
06:00+3ene498393 0.0 1021680
09:00+4ene587089 0.0 1020778
12:00+5ene5777100 0.0 1019878
15:00+3ne3896100 0.1 1018557
18:00+3ne41096100 0.1 1016525
21:00+4ne41195100 0.5 1014661
21 april, wed
wed2100:00+4ne4997100 0.3 1010754
03:00+3nne41097100 4.1 1006694
06:00+2nne41098100 4.9 1003667
09:00+2n3799100 8.6 1002365
12:00+2nw2499100 2.0 1002287
15:00+2w3799100 3.1 1002424
18:00+2wsw4997100 0.6 1005520
21:00+2wsw4998100 1.4 1007768
22 april, thu
thu2200:00+3wsw41098100 1.2 1010733
03:00+4sw3996100 1.8 1012514
06:00+2ssw289699 0.0 1014209
09:00+7sw35825 0.0 1016363
12:00+10sw346885 0.2 10171040
15:00+10wsw357799 0.8 10191016
18:00+10w2383100 0.3 1020366
21:00+7ene119489 0.6 102210